| time (UTC) | temp C | wind direction | speed KPH | gust KPH | rain 1hr cm | rain 24hr cm | rain mn cm | humidity % | barometer mb |
| 20260905045403 | 29 | 81 | 1.6 | 3.2 | 0.00 | 0.00 | 0.00 | 49 | 1013.7 |
| 20260905044904 | 29 | 101 | 0.0 | 1.6 | 0.00 | 0.00 | 0.00 | 50 | 1013.8 |
| 20260905044403 | 29 | 101 | 0.0 | 1.6 | 0.00 | 0.00 | 0.00 | 50 | 1013.8 |
| 20260905043904 | 30 | 101 | 0.0 | 3.2 | 0.00 | 0.00 | 0.00 | 48 | 1013.7 |
| 20260905043404 | 30 | 104 | 1.6 | 3.2 | 0.00 | 0.00 | 0.00 | 47 | 1013.7 |
| 20260905042903 | 30 | 229 | 0.0 | 1.6 | 0.00 | 0.00 | 0.00 | 46 | 1013.8 |
| 20260905041904 | 31 | 229 | 0.0 | 0.0 | 0.00 | 0.03 | 0.00 | 42 | 1013.7 |
| 20260905041403 | 31 | 229 | 0.0 | 3.2 | 0.00 | 0.13 | 0.00 | 41 | 1013.7 |
| 20260905040904 | 31 | 229 | 0.0 | 4.8 | 0.00 | 0.18 | 0.00 | 40 | 1013.7 |
| 20260905040404 | 31 | 229 | 0.0 | 4.8 | 0.00 | 0.20 | 0.00 | 40 | 1013.6 |
| 20260905035904 | 31 | 253 | 1.6 | 4.8 | 0.00 | 0.20 | 0.00 | 39 | 1013.7 |
| 20260905035404 | 31 | 238 | 0.0 | 8.0 | 0.00 | 0.25 | 0.00 | 39 | 1013.7 |
| 20260905034904 | 31 | 246 | 1.6 | 8.0 | 0.00 | 0.25 | 0.00 | 39 | 1013.6 |
| 20260905034403 | 32 | 224 | 1.6 | 4.8 | 0.00 | 0.25 | 0.00 | 39 | 1013.6 |
| 20260905033903 | 32 | 243 | 1.6 | 4.8 | 0.00 | 0.25 | 0.00 | 38 | 1013.6 |
| 20260905032903 | 32 | 221 | 1.6 | 4.8 | 0.00 | 0.25 | 0.00 | 38 | 1013.5 |
| 20260905031903 | 32 | 209 | 1.6 | 4.8 | 0.00 | 0.25 | 0.00 | 37 | 1013.4 |
| 20260905031403 | 32 | 220 | 1.6 | 4.8 | 0.00 | 0.25 | 0.00 | 37 | 1013.2 |
| 20260905030903 | 32 | 207 | 0.0 | 3.2 | 0.00 | 0.25 | 0.00 | 37 | 1013.1 |
| 20260905030404 | 32 | 213 | 0.0 | 3.2 | 0.00 | 0.25 | 0.00 | 37 | 1013.1 |
| 20260905024903 | 32 | 211 | 1.6 | 3.2 | 0.00 | 0.25 | 0.00 | 36 | 1012.9 |
| 20260905024403 | 32 | 226 | 1.6 | 4.8 | 0.00 | 0.25 | 0.00 | 36 | 1012.8 |
| 20260905023904 | 32 | 223 | 1.6 | 4.8 | 0.00 | 0.25 | 0.00 | 36 | 1012.8 |
| 20260905022903 | 33 | 247 | 1.6 | 4.8 | 0.00 | 0.25 | 0.00 | 35 | 1012.5 |
| 20260905022403 | 33 | 229 | 1.6 | 9.7 | 0.00 | 0.25 | 0.00 | 35 | 1012.5 |
| 20260905021904 | 33 | 239 | 3.2 | 9.7 | 0.00 | 0.25 | 0.00 | 34 | 1012.5 |
| 20260905021403 | 33 | 247 | 1.6 | 4.8 | 0.00 | 0.25 | 0.00 | 33 | 1012.4 |
| 20260905020903 | 33 | 242 | 3.2 | 8.0 | 0.00 | 0.25 | 0.00 | 33 | 1012.4 |
| 20260905020403 | 33 | 240 | 3.2 | 8.0 | 0.00 | 0.25 | 0.00 | 33 | 1012.3 |
| 20260905015903 | 33 | 239 | 3.2 | 4.8 | 0.00 | 0.25 | 0.00 | 33 | 1012.2 |
| 20260905015404 | 33 | 236 | 1.6 | 4.8 | 0.00 | 0.25 | 0.00 | 33 | 1012.3 |
| 20260905014904 | 33 | 228 | 1.6 | 4.8 | 0.00 | 0.25 | 0.00 | 32 | 1012.2 |
| 20260905014404 | 33 | 241 | 1.6 | 4.8 | 0.00 | 0.25 | 0.00 | 31 | 1012.2 |
| 20260905013903 | 33 | 211 | 0.0 | 3.2 | 0.00 | 0.25 | 0.00 | 31 | 1012.3 |
| 20260905013403 | 33 | 228 | 0.0 | 9.7 | 0.00 | 0.25 | 0.00 | 31 | 1012.2 |
| 20260905012403 | 34 | 282 | 1.6 | 4.8 | 0.00 | 0.25 | 0.00 | 31 | 1012.2 |
| 20260905011904 | 34 | 297 | 3.2 | 9.7 | 0.00 | 0.25 | 0.00 | 31 | 1012.2 |
| 20260905011403 | 34 | 209 | 3.2 | 9.7 | 0.00 | 0.25 | 0.00 | 30 | 1012.1 |
| 20260905010903 | 34 | 277 | 1.6 | 11.3 | 0.00 | 0.25 | 0.00 | 30 | 1012.0 |
| 20260905010404 | 34 | 218 | 3.2 | 11.3 | 0.00 | 0.25 | 0.00 | 30 | 1012.1 |
| 20260905005903 | 34 | 18 | 1.6 | 9.7 | 0.00 | 0.25 | 0.00 | 30 | 1012.0 |
| 20260905005403 | 35 | 304 | 3.2 | 11.3 | 0.00 | 0.25 | 0.00 | 29 | 1012.0 |
| 20260905004903 | 35 | 13 | 3.2 | 11.3 | 0.00 | 0.25 | 0.00 | 29 | 1011.9 |
| 20260905004404 | 35 | 238 | 3.2 | 11.3 | 0.00 | 0.25 | 0.00 | 29 | 1012.0 |
| 20260905003904 | 35 | 196 | 3.2 | 4.8 | 0.00 | 0.25 | 0.00 | 28 | 1012.0 |
| 20260905002903 | 35 | 332 | 1.6 | 8.0 | 0.00 | 0.25 | 0.00 | 28 | 1012.0 |
| 20260905002403 | 35 | 135 | 1.6 | 9.7 | 0.00 | 0.25 | 0.00 | 28 | 1011.9 |
| 20260905001904 | 35 | 340 | 3.2 | 9.7 | 0.00 | 0.25 | 0.00 | 28 | 1011.8 |
| 20260905001403 | 35 | 266 | 1.6 | 11.3 | 0.00 | 0.25 | 0.00 | 27 | 1011.8 |
| 20260905000904 | 35 | 335 | 4.8 | 12.9 | 0.00 | 0.25 | 0.00 | 27 | 1011.8 |
| 20260905000404 | 36 | 251 | 3.2 | 12.9 | 0.00 | 0.25 | 0.00 | 26 | 1011.8 |
| 20260904235403 | 36 | 238 | 3.2 | 11.3 | 0.00 | 0.25 | 0.00 | 26 | 1011.6 |
| 20260904234403 | 36 | 237 | 3.2 | 9.7 | 0.00 | 0.25 | 0.00 | 28 | 1011.7 |
| 20260904233903 | 36 | 16 | 3.2 | 8.0 | 0.00 | 0.25 | 0.00 | 29 | 1011.8 |
| 20260904232903 | 36 | 45 | 1.6 | 11.3 | 0.00 | 0.25 | 0.00 | 29 | 1011.8 |
| 20260904231404 | 36 | 253 | 4.8 | 11.3 | 0.00 | 0.25 | 0.00 | 27 | 1012.0 |
| 20260904230903 | 36 | 65 | 1.6 | 11.3 | 0.00 | 0.25 | 0.00 | 31 | 1012.0 |
| 20260904230403 | 35 | 292 | 3.2 | 9.7 | 0.00 | 0.25 | 0.00 | 31 | 1012.0 |
| 20260904225904 | 35 | 213 | 1.6 | 11.3 | 0.00 | 0.25 | 0.00 | 30 | 1012.0 |
| 20260904224904 | 35 | 198 | 1.6 | 11.3 | 0.00 | 0.25 | 0.00 | 32 | 1012.2 |
| 20260904224404 | 36 | 163 | 3.2 | 11.3 | 0.00 | 0.25 | 0.00 | 30 | 1012.2 |
| 20260904223904 | 36 | 230 | 3.2 | 8.0 | 0.00 | 0.25 | 0.00 | 30 | 1012.2 |
| 20260904223404 | 36 | 67 | 0.0 | 14.5 | 0.00 | 0.25 | 0.00 | 30 | 1012.3 |
| 20260904222903 | 36 | 70 | 3.2 | 14.5 | 0.00 | 0.25 | 0.00 | 30 | 1012.3 |
| 20260904221904 | 36 | 213 | 3.2 | 14.5 | 0.00 | 0.25 | 0.00 | 30 | 1012.5 |
| 20260904221403 | 36 | 222 | 3.2 | 12.9 | 0.00 | 0.25 | 0.00 | 29 | 1012.4 |
| 20260904220904 | 37 | 343 | 1.6 | 9.7 | 0.00 | 0.25 | 0.00 | 29 | 1012.6 |
| 20260904220403 | 36 | 306 | 3.2 | 11.3 | 0.00 | 0.25 | 0.00 | 29 | 1012.5 |
| 20260904215904 | 37 | 353 | 4.8 | 11.3 | 0.00 | 0.25 | 0.00 | 29 | 1012.6 |
| 20260904214903 | 36 | 242 | 3.2 | 12.9 | 0.00 | 0.25 | 0.00 | 30 | 1012.7 |
| 20260904214403 | 36 | 318 | 3.2 | 14.5 | 0.00 | 0.25 | 0.00 | 29 | 1012.8 |
| 20260904213904 | 36 | 10 | 6.4 | 14.5 | 0.00 | 0.25 | 0.00 | 30 | 1012.8 |
| 20260904213404 | 36 | 39 | 3.2 | 12.9 | 0.00 | 0.25 | 0.00 | 29 | 1012.8 |
| 20260904212904 | 37 | 227 | 4.8 | 12.9 | 0.00 | 0.25 | 0.00 | 28 | 1012.9 |
| 20260904212403 | 36 | 101 | 3.2 | 9.7 | 0.00 | 0.25 | 0.00 | 28 | 1012.9 |
| 20260904211904 | 36 | 227 | 3.2 | 16.1 | 0.00 | 0.25 | 0.00 | 30 | 1013.0 |
| 20260904211403 | 36 | 254 | 4.8 | 16.1 | 0.00 | 0.25 | 0.00 | 28 | 1013.1 |
| 20260904210904 | 37 | 228 | 6.4 | 16.1 | 0.00 | 0.25 | 0.00 | 28 | 1013.1 |
| 20260904210403 | 36 | 227 | 4.8 | 12.9 | 0.00 | 0.25 | 0.00 | 30 | 1013.2 |
| 20260904205904 | 36 | 338 | 4.8 | 11.3 | 0.00 | 0.25 | 0.00 | 30 | 1013.2 |
| 20260904204403 | 35 | 225 | 1.6 | 9.7 | 0.00 | 0.25 | 0.00 | 32 | 1013.3 |
| 20260904203903 | 35 | 211 | 3.2 | 8.0 | 0.00 | 0.25 | 0.00 | 34 | 1013.4 |
| 20260904203403 | 36 | 200 | 4.8 | 9.7 | 0.00 | 0.25 | 0.00 | 32 | 1013.5 |
| 20260904202904 | 36 | 228 | 1.6 | 14.5 | 0.00 | 0.25 | 0.00 | 33 | 1013.6 |
| 20260904202404 | 36 | 299 | 4.8 | 14.5 | 0.00 | 0.25 | 0.00 | 34 | 1013.7 |
| 20260904201903 | 35 | 242 | 4.8 | 11.3 | 0.00 | 0.25 | 0.00 | 36 | 1013.7 |
| 20260904201404 | 36 | 40 | 3.2 | 12.9 | 0.00 | 0.25 | 0.00 | 34 | 1013.8 |
| 20260904200903 | 36 | 233 | 4.8 | 12.9 | 0.00 | 0.25 | 0.00 | 35 | 1013.9 |
| 20260904200404 | 35 | 234 | 6.4 | 12.9 | 0.00 | 0.25 | 0.00 | 37 | 1014.0 |
| 20260904195904 | 35 | 147 | 3.2 | 8.0 | 0.00 | 0.25 | 0.00 | 36 | 1014.1 |
| 20260904195404 | 35 | 30 | 3.2 | 8.0 | 0.00 | 0.25 | 0.00 | 38 | 1014.0 |
| 20260904194903 | 35 | 212 | 1.6 | 4.8 | 0.00 | 0.25 | 0.00 | 39 | 1014.1 |
| 20260904194403 | 34 | 105 | 1.6 | 4.8 | 0.00 | 0.25 | 0.00 | 39 | 1014.2 |
| 20260904193903 | 34 | 56 | 1.6 | 11.3 | 0.00 | 0.25 | 0.00 | 40 | 1014.3 |
| 20260904192904 | 34 | 86 | 1.6 | 9.7 | 0.00 | 0.25 | 0.00 | 40 | 1014.4 |
| 20260904192403 | 34 | 193 | 3.2 | 9.7 | 0.00 | 0.25 | 0.00 | 39 | 1014.6 |
| 20260904191903 | 34 | 250 | 1.6 | 11.3 | 0.00 | 0.25 | 0.00 | 41 | 1014.6 |
| 20260904191403 | 34 | 230 | 3.2 | 11.3 | 0.00 | 0.25 | 0.00 | 40 | 1014.6 |
| 20260904190903 | 34 | 219 | 3.2 | 9.7 | 0.00 | 0.25 | 0.00 | 39 | 1014.6 |
| 20260904190404 | 33 | 55 | 3.2 | 8.0 | 0.00 | 0.25 | 0.00 | 40 | 1014.7 |
| 20260904185904 | 33 | 48 | 3.2 | 8.0 | 0.00 | 0.25 | 0.00 | 40 | 1014.8 |
| 20260904185403 | 33 | 38 | 3.2 | 9.7 | 0.00 | 0.25 | 0.00 | 40 | 1014.8 |
| 20260904184903 | 33 | 122 | 3.2 | 9.7 | 0.00 | 0.25 | 0.00 | 40 | 1014.9 |
| 20260904184403 | 33 | 183 | 1.6 | 9.7 | 0.00 | 0.25 | 0.00 | 39 | 1014.9 |
| 20260904183903 | 33 | 92 | 3.2 | 9.7 | 0.00 | 0.25 | 0.00 | 40 | 1015.0 |
| 20260904182903 | 33 | 39 | 3.2 | 9.7 | 0.00 | 0.25 | 0.00 | 41 | 1015.1 |
| 20260904181403 | 32 | 153 | 1.6 | 4.8 | 0.00 | 0.25 | 0.00 | 43 | 1015.3 |
| 20260904180904 | 32 | 94 | 3.2 | 8.0 | 0.00 | 0.25 | 0.00 | 43 | 1015.4 |
| 20260904180403 | 32 | 148 | 1.6 | 8.0 | 0.00 | 0.25 | 0.00 | 44 | 1015.4 |
| 20260904175903 | 32 | 240 | 3.2 | 9.7 | 0.00 | 0.25 | 0.00 | 44 | 1015.4 |
| 20260904175403 | 32 | 188 | 3.2 | 9.7 | 0.00 | 0.25 | 0.00 | 46 | 1015.4 |
| 20260904174904 | 32 | 141 | 1.6 | 12.9 | 0.00 | 0.25 | 0.00 | 50 | 1015.5 |
| 20260904174403 | 32 | 159 | 4.8 | 12.9 | 0.00 | 0.25 | 0.00 | 47 | 1015.5 |
| 20260904173904 | 32 | 80 | 3.2 | 9.7 | 0.00 | 0.25 | 0.00 | 51 | 1015.7 |
| 20260904173403 | 31 | 94 | 3.2 | 11.3 | 0.00 | 0.25 | 0.00 | 50 | 1015.8 |
| 20260904172904 | 31 | 165 | 1.6 | 11.3 | 0.00 | 0.25 | 0.00 | 51 | 1015.9 |
| 20260904172403 | 31 | 113 | 4.8 | 16.1 | 0.00 | 0.25 | 0.00 | 51 | 1015.8 |
| 20260904171904 | 31 | 113 | 4.8 | 16.1 | 0.00 | 0.25 | 0.00 | 53 | 1016.0 |
| 20260904171403 | 31 | 93 | 3.2 | 16.1 | 0.00 | 0.25 | 0.00 | 53 | 1016.0 |
| 20260904170903 | 31 | 140 | 1.6 | 12.9 | 0.00 | 0.25 | 0.00 | 54 | 1016.1 |
| 20260904170404 | 30 | 93 | 6.4 | 12.9 | 0.00 | 0.25 | 0.00 | 54 | 1016.2 |
| 20260904165904 | 31 | 118 | 3.2 | 16.1 | 0.00 | 0.25 | 0.00 | 56 | 1016.1 |
| 20260904165403 | 30 | 115 | 3.2 | 16.1 | 0.00 | 0.25 | 0.00 | 56 | 1016.0 |
| 20260904164904 | 30 | 142 | 4.8 | 14.5 | 0.00 | 0.25 | 0.00 | 55 | 1016.0 |
| 20260904164403 | 30 | 139 | 3.2 | 12.9 | 0.00 | 0.25 | 0.00 | 56 | 1016.0 |
| 20260904163904 | 30 | 103 | 3.2 | 12.9 | 0.00 | 0.25 | 0.00 | 57 | 1015.9 |
| 20260904162404 | 30 | 116 | 4.8 | 11.3 | 0.00 | 0.25 | 0.00 | 57 | 1015.9 |
| 20260904161903 | 30 | 95 | 6.4 | 12.9 | 0.00 | 0.25 | 0.00 | 57 | 1015.9 |
| 20260904160903 | 29 | 211 | 6.4 | 16.1 | 0.00 | 0.25 | 0.00 | 58 | 1015.7 |
| 20260904160404 | 29 | 99 | 3.2 | 12.9 | 0.00 | 0.25 | 0.00 | 58 | 1015.7 |
| 20260904155903 | 29 | 121 | 3.2 | 19.3 | 0.00 | 0.25 | 0.00 | 59 | 1015.8 |
| 20260904155404 | 28 | 41 | 4.8 | 19.3 | 0.00 | 0.25 | 0.00 | 59 | 1015.7 |
| 20260904154903 | 28 | 134 | 4.8 | 12.9 | 0.00 | 0.25 | 0.00 | 59 | 1015.7 |
| 20260904154404 | 28 | 151 | 3.2 | 19.3 | 0.00 | 0.25 | 0.00 | 59 | 1015.6 |
| 20260904153903 | 28 | 106 | 4.8 | 19.3 | 0.00 | 0.25 | 0.00 | 60 | 1015.6 |
| 20260904153404 | 28 | 92 | 4.8 | 12.9 | 0.00 | 0.25 | 0.00 | 60 | 1015.5 |
| 20260904152904 | 28 | 111 | 3.2 | 12.9 | 0.00 | 0.25 | 0.00 | 61 | 1015.7 |
| 20260904152404 | 28 | 109 | 4.8 | 12.9 | 0.00 | 0.25 | 0.00 | 62 | 1015.6 |
| 20260904151904 | 27 | 106 | 4.8 | 12.9 | 0.00 | 0.25 | 0.00 | 63 | 1015.6 |
| 20260904151403 | 27 | 92 | 3.2 | 11.3 | 0.00 | 0.25 | 0.00 | 62 | 1015.6 |
| 20260904150904 | 27 | 164 | 3.2 | 4.8 | 0.00 | 0.25 | 0.00 | 63 | 1015.6 |
| 20260904150403 | 27 | 99 | 1.6 | 12.9 | 0.00 | 0.25 | 0.00 | 64 | 1015.7 |
| 20260904145904 | 27 | 146 | 3.2 | 12.9 | 0.00 | 0.25 | 0.00 | 64 | 1015.5 |
| 20260904144903 | 27 | 119 | 3.2 | 16.1 | 0.00 | 0.25 | 0.00 | 64 | 1015.5 |
| 20260904144404 | 27 | 109 | 3.2 | 16.1 | 0.00 | 0.25 | 0.00 | 64 | 1015.5 |
| 20260904143904 | 27 | 145 | 3.2 | 11.3 | 0.00 | 0.25 | 0.00 | 64 | 1015.5 |
| 20260904143404 | 27 | 113 | 3.2 | 11.3 | 0.00 | 0.25 | 0.00 | 65 | 1015.5 |
| 20260904142903 | 27 | 143 | 3.2 | 11.3 | 0.00 | 0.25 | 0.00 | 65 | 1015.5 |
| 20260904141904 | 26 | 143 | 3.2 | 11.3 | 0.00 | 0.25 | 0.00 | 66 | 1015.4 |
| 20260904140904 | 26 | 156 | 3.2 | 11.3 | 0.00 | 0.25 | 0.00 | 67 | 1015.3 |
| 20260904140403 | 26 | 106 | 3.2 | 4.8 | 0.00 | 0.25 | 0.00 | 68 | 1015.3 |
| 20260904135904 | 26 | 139 | 1.6 | 9.7 | 0.00 | 0.25 | 0.00 | 68 | 1015.2 |
| 20260904135403 | 26 | 115 | 3.2 | 9.7 | 0.00 | 0.25 | 0.00 | 69 | 1015.2 |
| 20260904134904 | 26 | 137 | 3.2 | 4.8 | 0.00 | 0.25 | 0.00 | 69 | 1015.1 |
| 20260904134403 | 25 | 60 | 1.6 | 11.3 | 0.00 | 0.25 | 0.00 | 69 | 1015.0 |
| 20260904133903 | 25 | 114 | 3.2 | 11.3 | 0.00 | 0.25 | 0.00 | 69 | 1014.9 |
| 20260904133403 | 25 | 111 | 1.6 | 4.8 | 0.00 | 0.25 | 0.00 | 69 | 1014.8 |
| 20260904132903 | 25 | 109 | 1.6 | 4.8 | 0.00 | 0.25 | 0.00 | 69 | 1014.7 |
| 20260904131904 | 25 | 111 | 0.0 | 4.8 | 0.00 | 0.25 | 0.00 | 69 | 1014.7 |
| 20260904131403 | 25 | 117 | 1.6 | 4.8 | 0.00 | 0.25 | 0.00 | 69 | 1014.6 |
| 20260904130404 | 25 | 136 | 1.6 | 4.8 | 0.00 | 0.25 | 0.00 | 69 | 1014.5 |
| 20260904125904 | 25 | 119 | 1.6 | 4.8 | 0.00 | 0.25 | 0.00 | 69 | 1014.4 |
| 20260904125403 | 25 | 114 | 1.6 | 4.8 | 0.00 | 0.25 | 0.00 | 69 | 1014.3 |
| 20260904124903 | 25 | 121 | 3.2 | 4.8 | 0.00 | 0.25 | 0.00 | 69 | 1014.3 |
| 20260904122903 | 25 | 101 | 3.2 | 11.3 | 0.00 | 0.25 | 0.00 | 69 | 1014.0 |
| 20260904122403 | 25 | 98 | 3.2 | 11.3 | 0.00 | 0.25 | 0.00 | 69 | 1013.9 |
| 20260904121403 | 26 | 121 | 1.6 | 4.8 | 0.00 | 0.25 | 0.00 | 68 | 1013.8 |
| 20260904120903 | 26 | 132 | 3.2 | 8.0 | 0.00 | 0.25 | 0.00 | 68 | 1013.8 |
| 20260904120403 | 26 | 113 | 1.6 | 8.0 | 0.00 | 0.25 | 0.00 | 67 | 1013.7 |
| 20260904115903 | 26 | 125 | 1.6 | 4.8 | 0.00 | 0.25 | 0.00 | 67 | 1013.7 |
| 20260904115404 | 26 | 110 | 1.6 | 4.8 | 0.00 | 0.25 | 0.00 | 67 | 1013.8 |
| 20260904114904 | 26 | 95 | 1.6 | 4.8 | 0.00 | 0.25 | 0.00 | 67 | 1013.8 |
| 20260904114403 | 26 | 125 | 3.2 | 8.0 | 0.00 | 0.25 | 0.00 | 67 | 1013.8 |
| 20260904113904 | 26 | 97 | 1.6 | 8.0 | 0.00 | 0.25 | 0.00 | 67 | 1013.8 |
| 20260904113403 | 26 | 127 | 3.2 | 8.0 | 0.00 | 0.25 | 0.00 | 67 | 1013.8 |
| 20260904112904 | 26 | 170 | 1.6 | 4.8 | 0.00 | 0.25 | 0.00 | 67 | 1013.7 |
| 20260904112403 | 26 | 114 | 1.6 | 4.8 | 0.00 | 0.25 | 0.00 | 66 | 1013.6 |
| 20260904111904 | 26 | 107 | 3.2 | 4.8 | 0.00 | 0.25 | 0.00 | 66 | 1013.6 |
| 20260904111404 | 26 | 107 | 3.2 | 9.7 | 0.00 | 0.25 | 0.00 | 66 | 1013.7 |
| 20260904110903 | 26 | 113 | 3.2 | 9.7 | 0.00 | 0.25 | 0.00 | 66 | 1013.6 |
| 20260904105903 | 26 | 104 | 3.2 | 11.3 | 0.00 | 0.25 | 0.00 | 66 | 1013.6 |
| 20260904105404 | 26 | 117 | 3.2 | 11.3 | 0.00 | 0.25 | 0.00 | 66 | 1013.6 |
| 20260904104903 | 26 | 115 | 3.2 | 11.3 | 0.00 | 0.25 | 0.00 | 66 | 1013.5 |
| 20260904104403 | 26 | 108 | 4.8 | 11.3 | 0.00 | 0.25 | 0.00 | 66 | 1013.5 |
| 20260904103904 | 26 | 101 | 4.8 | 11.3 | 0.00 | 0.25 | 0.00 | 66 | 1013.5 |
| 20260904103404 | 26 | 112 | 3.2 | 11.3 | 0.00 | 0.25 | 0.00 | 66 | 1013.6 |
| 20260904102904 | 26 | 116 | 3.2 | 9.7 | 0.00 | 0.25 | 0.00 | 66 | 1013.6 |
| 20260904102404 | 26 | 99 | 3.2 | 9.7 | 0.00 | 0.25 | 0.00 | 66 | 1013.6 |
| 20260904101904 | 26 | 108 | 3.2 | 11.3 | 0.00 | 0.25 | 0.00 | 66 | 1013.7 |
| 20260904101404 | 26 | 118 | 3.2 | 11.3 | 0.00 | 0.25 | 0.00 | 66 | 1013.7 |
| 20260904100903 | 26 | 121 | 3.2 | 9.7 | 0.00 | 0.25 | 0.00 | 66 | 1013.6 |
| 20260904100403 | 26 | 87 | 3.2 | 9.7 | 0.00 | 0.25 | 0.00 | 66 | 1013.5 |
| 20260904095903 | 26 | 125 | 1.6 | 11.3 | 0.00 | 0.25 | 0.00 | 66 | 1013.5 |
| 20260904095404 | 26 | 103 | 3.2 | 11.3 | 0.00 | 0.25 | 0.00 | 66 | 1013.4 |
| 20260904094904 | 26 | 112 | 3.2 | 11.3 | 0.00 | 0.25 | 0.00 | 66 | 1013.4 |
| 20260904093904 | 26 | 112 | 3.2 | 12.9 | 0.00 | 0.25 | 0.00 | 66 | 1013.3 |
| 20260904093403 | 26 | 110 | 3.2 | 11.3 | 0.00 | 0.25 | 0.00 | 66 | 1013.3 |
| 20260904091904 | 26 | 122 | 4.8 | 12.9 | 0.00 | 0.25 | 0.00 | 66 | 1013.1 |
| 20260904091404 | 26 | 125 | 3.2 | 4.8 | 0.00 | 0.25 | 0.00 | 67 | 1013.1 |
| 20260904090404 | 26 | 121 | 3.2 | 9.7 | 0.00 | 0.25 | 0.00 | 67 | 1013.3 |
| 20260904085903 | 26 | 124 | 3.2 | 9.7 | 0.00 | 0.25 | 0.00 | 67 | 1013.3 |
| 20260904085403 | 26 | 116 | 3.2 | 4.8 | 0.00 | 0.25 | 0.00 | 67 | 1013.3 |
| 20260904084904 | 26 | 141 | 3.2 | 4.8 | 0.00 | 0.25 | 0.00 | 67 | 1013.4 |
| 20260904083904 | 26 | 107 | 3.2 | 4.8 | 0.00 | 0.25 | 0.00 | 67 | 1013.4 |
| 20260904083404 | 26 | 122 | 1.6 | 4.8 | 0.00 | 0.25 | 0.00 | 67 | 1013.4 |
| 20260904082903 | 26 | 133 | 1.6 | 4.8 | 0.00 | 0.25 | 0.00 | 68 | 1013.4 |
| 20260904082404 | 26 | 111 | 1.6 | 4.8 | 0.00 | 0.25 | 0.00 | 68 | 1013.5 |
| 20260904081904 | 26 | 116 | 1.6 | 8.0 | 0.00 | 0.25 | 0.00 | 68 | 1013.5 |
| 20260904081403 | 26 | 101 | 1.6 | 8.0 | 0.00 | 0.25 | 0.00 | 68 | 1013.5 |
| 20260904080904 | 26 | 111 | 3.2 | 4.8 | 0.00 | 0.25 | 0.00 | 68 | 1013.5 |
| 20260904080403 | 26 | 117 | 1.6 | 4.8 | 0.00 | 0.25 | 0.00 | 68 | 1013.6 |
| 20260904075904 | 26 | 175 | 1.6 | 11.3 | 0.00 | 0.25 | 0.00 | 67 | 1013.6 |
| 20260904075403 | 26 | 115 | 0.0 | 11.3 | 0.00 | 0.25 | 0.00 | 67 | 1013.6 |
| 20260904074904 | 26 | 108 | 3.2 | 11.3 | 0.00 | 0.25 | 0.00 | 67 | 1013.5 |
| 20260904074403 | 26 | 116 | 1.6 | 4.8 | 0.00 | 0.25 | 0.00 | 66 | 1013.6 |
| 20260904073904 | 26 | 121 | 3.2 | 4.8 | 0.00 | 0.25 | 0.00 | 66 | 1013.5 |
| 20260904073403 | 26 | 96 | 1.6 | 4.8 | 0.00 | 0.25 | 0.00 | 66 | 1013.6 |
| 20260904072904 | 26 | 134 | 1.6 | 8.0 | 0.00 | 0.25 | 0.00 | 66 | 1013.6 |
| 20260904072403 | 26 | 98 | 3.2 | 8.0 | 0.00 | 0.25 | 0.00 | 66 | 1013.6 |
| 20260904071904 | 26 | 114 | 1.6 | 8.0 | 0.00 | 0.25 | 0.00 | 66 | 1013.5 |
| 20260904071404 | 26 | 103 | 3.2 | 9.7 | 0.00 | 0.25 | 0.00 | 66 | 1013.6 |
| 20260904070903 | 26 | 145 | 1.6 | 9.7 | 0.00 | 0.25 | 0.00 | 66 | 1013.6 |
| 20260904070404 | 26 | 142 | 1.6 | 9.7 | 0.00 | 0.25 | 0.00 | 66 | 1013.5 |
| 20260904065403 | 26 | 90 | 3.2 | 9.7 | 0.00 | 0.25 | 0.25 | 65 | 1013.6 |
| 20260904064903 | 26 | 95 | 1.6 | 9.7 | 0.00 | 0.25 | 0.25 | 66 | 1013.6 |
| 20260904064404 | 26 | 165 | 3.2 | 8.0 | 0.00 | 0.25 | 0.25 | 66 | 1013.6 |
| 20260904063904 | 26 | 153 | 3.2 | 4.8 | 0.00 | 0.25 | 0.25 | 66 | 1013.6 |
| 20260904063404 | 26 | 101 | 1.6 | 4.8 | 0.00 | 0.25 | 0.25 | 67 | 1013.6 |
| 20260904062904 | 26 | 119 | 1.6 | 4.8 | 0.00 | 0.25 | 0.25 | 67 | 1013.5 |
| 20260904062404 | 26 | 158 | 1.6 | 3.2 | 0.00 | 0.25 | 0.25 | 67 | 1013.6 |
| 20260904061904 | 26 | 148 | 0.0 | 4.8 | 0.00 | 0.25 | 0.25 | 67 | 1013.6 |
| 20260904061403 | 26 | 114 | 1.6 | 4.8 | 0.00 | 0.25 | 0.25 | 67 | 1013.6 |
| 20260904060903 | 26 | 122 | 1.6 | 4.8 | 0.00 | 0.25 | 0.25 | 68 | 1013.6 |
| 20260904055904 | 26 | 119 | 0.0 | 4.8 | 0.00 | 0.25 | 0.25 | 67 | 1013.6 |
| 20260904055404 | 27 | 133 | 0.0 | 9.7 | 0.00 | 0.25 | 0.25 | 67 | 1013.5 |
| 20260904054903 | 27 | 140 | 1.6 | 9.7 | 0.00 | 0.25 | 0.25 | 67 | 1013.5 |
| 20260904054404 | 26 | 102 | 3.2 | 9.7 | 0.00 | 0.25 | 0.25 | 66 | 1013.4 |
| 20260904053904 | 26 | 143 | 0.0 | 4.8 | 0.00 | 0.25 | 0.25 | 68 | 1013.4 |
| 20260904053404 | 26 | 132 | 1.6 | 4.8 | 0.00 | 0.25 | 0.25 | 69 | 1013.4 |
| 20260904052903 | 26 | 101 | 1.6 | 4.8 | 0.00 | 0.25 | 0.25 | 71 | 1013.4 |
| 20260904051403 | 26 | 140 | 0.0 | 4.8 | 0.13 | 0.25 | 0.25 | 74 | 1013.3 |
| 20260904050903 | 26 | 118 | 1.6 | 11.3 | 0.18 | 0.25 | 0.25 | 74 | 1013.3 |
| 20260904050404 | 26 | 116 | 1.6 | 11.3 | 0.20 | 0.25 | 0.25 | 75 | 1013.3 |
| 20260904045904 | 26 | 132 | 3.2 | 9.7 | 0.20 | 0.25 | 0.25 | 75 | 1013.4 |